Location: La Ville-aux-Bois
(49.4270°N, 3.8511°E)
Time: 12:59:26
(UTC+00:00)

Daily predictions for brighter satellites

Satellite Brightness Start Highest point End
(mag) Time Altitude Azimuth Time Altitude Azimuth Time Altitude Azimuth
NOAA 12 4.2 16:57:54 10° SSE 17:03:08 89° ENE 17:08:26 10° NNW
Landsat 5 3.2 17:01:34 10° NNE 17:05:27 76° ESE 17:09:16 10° S
MOS 1 Rocket 4.4 17:02:35 10° NE 17:05:44 20° E 17:08:54 10° SE
CZ-2D R/B 4.2 17:03:12 10° SE 17:06:28 27° ENE 17:09:43 10° N
Cosmos-2242 4.3 17:05:19 10° NNE 17:08:32 20° ENE 17:11:45 10° ESE
NOAA 11 4.2 17:05:01 10° SSE 17:10:31 81° ENE 17:16:02 10° NNW
NOSS 3-1 (C) 4.1 17:03:28 10° NW 17:10:49 85° NE 17:19:27 10° SE
AQUARIUS 4.2 17:06:49 10° SSE 17:11:19 90° WSW 17:15:51 10° NNW
COSMO-SKYMED 1 3.5 17:09:30 10° NE 17:13:14 27° E 17:16:57 10° SSE
BREEZE-M DEB (TANK) 1.6 17:12:15 10° W 17:14:42 84° N 17:17:00 10° E
Cosmos 1937 Rocket 4.2 17:11:38 10° SSE 17:16:22 34° ESE 17:21:07 10° NE
Aureole 3 2.5 17:13:28 10° N 17:16:36 69° E 17:19:32 10° SSE
Okean 1-7 Rocket 3.7 17:13:46 10° S 17:18:20 89° SE 17:22:57 10° N
USA 290 3.2 17:17:48 10° N 17:20:35 27° ENE 17:23:21 10° ESE
NOSS 2-1 (C) 3.1 17:20:38 10° SSW 17:23:54 55° SE 17:27:19 10° NE
Cosmos 1833 Rocket 2.9 17:18:55 10° NNW 17:24:22 49° NE 17:29:49 10° SE
H-2A R/B 2.7 17:24:32 10° SE 17:29:00 32° ENE 17:33:36 10° N
NOSS 2-1 (D) 2.9 17:26:32 10° SSW 17:29:50 64° SE 17:33:06 11° NE
Meteor 1-21 Rocket 4.2 17:24:27 10° S 17:29:58 72° E 17:35:34 10° NNE
Cosmos 2344 4.3 17:21:37 10° NW 17:30:34 72° NE 17:43:01 10° SE
H-2A R/B 2.1 17:26:13 10° NNE 17:30:38 90° SSW 17:34:55 10° SSW
Cosmos 1939 Rocket 2.8 17:27:02 10° SSE 17:31:06 74° ENE 17:35:07 10° N
Helios 1A Rocket 4.1 17:28:19 10° ESE 17:31:34 23° ENE 17:34:50 10° N
USA 229 DEB 3.9 17:25:03 10° NW 17:32:20 85° NE 17:40:01 10° SE
USA 229 3.9 17:25:09 10° NW 17:32:26 84° NE 17:40:08 10° SE
Cosmos 44 3.4 17:29:01 10° SW 17:33:53 88° NW 17:39:06 10° NE
CZ-3B R/B 1.7 17:31:30 10° WNW 17:33:54 85° NNE 17:40:16 10° ESE
Cosmos 1602 Rocket 3.7 17:29:54 10° S 17:34:08 53° E 17:38:26 10° NNE
SeaSat 1 3.6 17:29:47 10° NNE 17:34:26 42° NW 17:39:03 10° WSW
Cosmos 2026 Rocket 4.2 17:29:39 10° SSE 17:35:28 46° E 17:41:25 10° NNE
Feng Yun 1-1 Rocket 4.2 17:31:01 10° SSE 17:36:29 71° ENE 17:42:08 10° NNW
Cosmos 2112 Rocket 4.2 17:31:54 10° NNW 17:37:08 75° WSW 17:42:18 10° SSE
SJ 16-02 2.2 17:32:52 10° SW 17:37:09 51° WNW 17:41:28 10° NNE
YAOGAN 1 3.1 17:36:34 10° SE 17:40:29 35° ENE 17:44:26 10° N
Cosmos 990 Rocket 3.9 17:35:25 10° SSW 17:40:37 81° ESE 17:45:49 10° NNE
Cosmos 1689 Rocket 3.8 17:41:34 15° ESE 17:41:34 15° ESE 17:42:57 10° SE
Cosmos 1553 Rocket 4.4 17:35:16 10° N 17:41:18 41° ENE 17:47:13 10° SE
Aureole 3 Rocket 2.7 17:39:10 10° N 17:42:18 48° E 17:46:05 10° SSE
Cosmos 1844 Rocket 3.4 17:36:50 10° SW 17:42:22 54° NW 17:47:55 10° NNE
H-2A R/B 4.3 17:38:43 10° SSW 17:42:35 36° W 17:46:37 10° NNW
COSMOS 2406 3.2 17:38:00 10° NNW 17:43:50 74° ENE 17:49:34 10° SE
Cosmos 1818 4.4 17:38:52 10° WSW 17:44:06 46° NW 17:49:24 10° NNE
Cosmos 2082 Rocket 2.6 17:38:43 10° NNW 17:44:08 41° NE 17:49:31 10° ESE
Cosmos 1844 4.2 17:40:46 10° SW 17:46:23 61° WNW 17:52:08 10° NNE
NOSS 3-1 (A) 4.1 17:40:35 10° NW 17:47:59 89° NE 17:56:38 10° SE
Cosmos 1703 3.2 17:44:15 10° S 17:48:07 86° E 17:52:02 10° N
X-37B 2.1 17:46:03 10° WSW 17:48:56 31° S 17:51:36 11° SE
Cosmos 1825 Rocket 4.2 17:45:21 10° SSE 17:49:15 32° E 17:53:13 10° NNE
IRS-1C Rocket 4.0 17:44:46 10° SSE 17:49:59 68° ENE 17:55:13 10° N
Cosmos 1812 Rocket 3.5 17:47:07 10° N 17:51:31 89° ENE 17:55:52 10° S
ISS -3.5 17:48:38 10° W 17:51:59 57° N 17:53:50 24° ENE
ATLAS 2AS CENTAUR R/B 4.2 17:48:36 10° WNW 17:55:14 28° N 18:00:54 12° NE
Okean O Rocket 3.2 17:51:47 10° SSW 17:55:57 39° W 18:00:07 10° NNW
ATLAS 5 CENTAUR R/B 3.7 17:54:20 10° NW 17:57:28 18° N 18:00:56 10° NNE
Iridium 4 Rocket 3.4 17:54:24 10° N 17:59:50 69° E 18:04:45 10° SSE
CZ-4 R/B 1.3 17:56:08 10° SSE 18:00:05 59° ENE 18:03:59 10° N
ERS-2 2.5 17:58:38 14° NNE 18:01:30 42° E 18:04:58 10° S
SKYMED 2 3.5 17:57:09 10° NNE 18:01:31 80° ESE 18:05:52 10° S
Cosmos 2195 Rocket 4.5 17:56:44 10° S 18:03:04 83° E 18:09:26 10° N
CSL-04 Rocket 4.0 17:59:27 10° SE 18:04:35 43° ENE 18:09:47 10° N
Okean-O 2.6 18:03:12 10° SSE 18:07:35 65° ENE 18:12:00 10° N
CZ-4C R/B 4.0 18:02:52 10° NW 18:07:44 24° N 18:11:46 15° NE
S3M 4.2 18:02:02 10° N 18:07:51 43° ENE 18:13:39 10° SE
USA 234 3.8 18:05:52 19° ENE 18:10:20 46° N 18:16:31 10° WNW
Ariane Rocket 4.4 18:11:25 19° NE 18:11:25 19° NE 18:14:17 10° NNE
Cosmos 1428 Rocket 4.4 18:04:45 10° S 18:11:03 80° E 18:17:24 10° NNE
Cosmos 1340 3.0 18:07:58 10° SSW 18:11:41 64° WNW 18:15:26 10° N
Cosmos 1346 Rocket 2.8 18:08:22 10° S 18:12:10 52° E 18:15:11 16° NNE
Cosmos 2278 Rocket 2.2 18:06:57 10° S 18:12:31 60° ESE 18:17:11 15° NE
Cosmos 1655 Rocket 4.5 18:07:09 10° SSE 18:12:42 36° E 18:18:16 10° NNE
Cosmos 1953 Rocket 3.9 18:11:40 10° SSE 18:15:41 39° E 18:17:57 22° NE
CZ-2C R/B 3.5 18:10:41 10° S 18:16:11 71° WSW 18:21:58 10° NNW
SWARM A 4.4 18:15:16 10° SSE 18:18:28 48° E 18:18:52 45° ENE
SAR-Lupe-4 3.6 18:17:51 28° NE 18:19:28 55° ESE 18:22:59 10° S
Cosmos 2292 Rocket 3.9 18:16:07 10° SSE 18:20:26 36° E 18:20:41 36° E
Cosmos 405 3.9 18:18:18 10° NNW 18:21:45 49° W 18:25:08 10° S
COSMOS 2455 4.5 18:17:02 10° W 18:22:06 27° NNW 18:27:11 10° NNE
Cosmos 44 Rocket 4.1 18:18:19 10° S 18:22:40 32° ESE 18:23:19 31° E
NOSS 2-1 (E) 3.9 18:21:54 10° WSW 18:25:06 44° NW 18:26:46 25° NNE
TELKOM 3 4.4 18:27:03 10° W 18:28:35 36° WSW 18:28:35 36° WSW
ARGOS 3.0 18:24:22 10° SSE 18:29:41 70° ENE 18:35:04 10° N
Cosmos 1869 3.3 18:26:12 10° N 18:30:01 50° ENE 18:30:11 49° E
Meteor 2-19 Rocket 4.4 18:25:45 10° S 18:31:55 89° ESE 18:38:08 10° N
PSLV R/B 3.9 18:28:34 10° NNE 18:32:50 85° ESE 18:37:02 10° SSW
SAR-Lupe-1 3.9 18:34:05 34° NNE 18:35:33 86° ESE 18:39:08 10° SSW
Cosmos 1898 Rocket 4.5 18:30:36 10° SW 18:35:38 46° WNW 18:40:40 10° NNE
Cosmos 372 Rocket 3.9 18:30:58 10° SSW 18:36:11 80° ESE 18:39:58 19° NNE
CZ-4B R/B 3.2 18:33:25 10° N 18:36:23 31° WNW 18:39:17 10° SW
Cosmos 468 4.4 18:31:57 10° NNW 18:37:13 71° ENE 18:41:13 18° SSE
CZ-2C R/B 3.0 18:33:46 17° NNE 18:37:49 44° E 18:43:10 10° S
Cosmos 494 Rocket 4.0 18:36:06 10° NNW 18:41:10 55° ENE 18:42:29 43° ESE
MOS 1 Rocket 4.0 18:40:09 10° N 18:44:17 47° WNW 18:48:26 10° SW
Cosmos 2150 Rocket 4.1 18:40:27 10° S 18:45:25 51° ESE 18:45:58 49° E
Cosmos 1048 Rocket 3.8 18:41:03 10° NNW 18:46:14 82° ENE 18:49:36 22° SSE
Cosmos-2242 4.0 18:42:13 10° NNW 18:46:21 47° W 18:50:29 10° SSW
COSMO-SKYMED 1 4.1 18:45:29 10° N 18:49:28 36° WNW 18:53:26 10° SW
SL-08 RB Rocket 3.6 18:59:18 32° SSE 19:01:23 86° WSW 19:05:54 10° NNW
CSL-04 Debris 4.5 18:58:15 10° S 19:03:35 66° WSW 19:08:59 10° NNW
Cosmos 2221 4.0 19:01:39 10° N 19:03:42 26° N 19:03:42 26° N
Helios 1A Rocket 4.1 19:02:32 10° S 19:06:29 42° W 19:10:28 10° NNW
Cosmos 389 Rocket 4.3 19:04:20 10° NNW 19:05:55 24° NNW 19:05:55 24° NNW
Cosmos 1833 Rocket 4.4 19:03:11 10° NW 19:08:07 32° WSW 19:13:02 10° SSW
H-2A R/B 3.2 19:03:30 10° SSW 19:08:19 42° W 19:13:17 10° NNW
Cosmos 1125 Rocket 4.0 19:04:57 10° S 19:08:41 45° SSE 19:08:41 45° SSE
Cosmos 1809 Rocket 4.3 19:04:28 10° S 19:10:35 82° E 19:16:47 10° NNE
Cosmos 2298 Rocket 3.9 19:07:24 10° SSW 19:12:43 89° ESE 19:13:35 64° NNE
Cosmos 2266 Rocket 3.8 19:08:32 10° S 19:14:46 81° E 19:20:55 10° N
NOSS 2-2 (C) 4.3 19:13:46 10° NW 19:19:03 86° NE 19:20:07 65° SE
In-Cosmos 22 Rocket 4.3 19:18:44 10° SSW 19:24:31 76° WNW 19:29:35 13° N
X-37B 3.8 19:23:23 10° WSW 19:23:54 12° SW 19:23:54 12° SW
Cosmos 2082 Rocket 3.4 19:22:56 10° NW 19:28:15 40° WSW 19:33:30 10° S
ISS -1.1 19:25:35 10° WNW 19:26:49 21° WNW 19:26:49 21° WNW
Cosmos 1241 Rocket 4.4 19:26:04 10° SW 19:32:35 90° SE 19:33:16 74° NE
CZ-4 R/B 4.4 19:33:12 10° SW 19:35:28 15° W 19:37:44 10° NW
MetOp-A 4.3 19:37:46 71° WNW 19:37:46 71° WNW 19:42:47 10° NNW
ATLAS 5 CENTAUR R/B 4.0 19:40:19 10° NNW 19:42:29 18° N 19:42:29 18° N
Cosmos 2315 Rocket 4.1 19:39:24 10° NNW 19:45:38 73° W 19:46:33 63° SSW
ATLAS 2AS CENTAUR R/B 3.8 19:41:40 10° NW 19:48:21 33° NNE 19:48:21 33° NNE
Ariane Rocket 4.4 19:51:36 31° NNW 19:51:36 31° NNW 19:54:15 10° NNW
USA 234 3.5 19:53:12 58° N 19:53:12 58° N 19:59:12 10° WNW
Cosmos 2278 Rocket 3.8 19:52:01 10° WSW 19:57:00 30° NW 19:59:05 24° N
CZ-4C R/B 3.7 19:52:05 10° NW 19:56:58 34° N 19:56:58 34° N
USA 281 4.2 20:04:50 35° N 20:04:50 35° N 20:08:42 10° NNW
CZ-2C R/B 4.2 20:15:09 22° NNW 20:17:59 34° WNW 20:23:00 10° SW
